Погода в Старой Станице

Россия / Ростовская область     48°20′57″N   40°16′52″E
темп.,
°C
ветер,
м/с
пор.,
м/с
влажн.,
%
обл.,
%
осадки,
мм/ч
давл.,
гПа
погр.,
м
28 октября, чт
чт2800:00+2юз22510 0.0 102610
03:00+2юз11520 0.0 102510
06:00+1зсз11525 0.0 102510
09:00+5з123990 0.0 1025115
12:00+9з3433100 0.0 1024507
15:00+10з4544100 0.0 1022681
18:00+7зюз356188 0.0 102279
21:00+8зюз4964100 0.0 1022240
29 октября, пт
пт2900:00+8зюз4967100 0.1 1022279
03:00+9зсз4869100 0.2 1022303
06:00+8сз368325 0.0 1023221
09:00+8с35827 0.0 1025259
12:00+13с34605 0.0 1026811
15:00+14ссв33545 0.0 10261256
18:00+9всв227164 0.0 102817
21:00+10в356521 0.0 1029114
30 октября, сб
сб3000:00+7в22755 0.0 103010
03:00+6в22772 0.0 103110
06:00+5в22842 0.0 103210
09:00+8вюв23730 0.0 1034197
12:00+12вюв34560 0.0 1033847
15:00+13в34490 0.0 10321031
18:00+9в22640 0.0 103317
21:00+7вюв22690 0.0 103314
31 октября, вс
вс3100:00+6вюв22740 0.0 103313
03:00+5вюв22820 0.0 103312
06:00+4в22870 0.0 103315
09:00+7в47730 0.0 1033239
12:00+13вюв57480 0.0 1032798
15:00+14вюв67400 0.0 10301000
18:00+9вюв49570 0.0 1030135
21:00+7вюв36650 0.0 103095
1 ноября, пн
пн100:00+6в33750 0.0 102942
03:00+5в36830 0.0 102897
06:00+4в38900 0.0 1027155
09:00+8вюв512809 0.0 1026411
12:00+13вюв7116264 0.0 1024985
15:00+14юв795768 0.0 10221206
18:00+13вюв5106140 0.0 1022410
21:00+9вюв366910 0.0 102294